Location: ?????????
(38.5999°N, 22.7695°E)
Time: 09:14:34
(UTC+00:00)

Envisat - Pass Details

Date: 23 May 2024
Orbit: 762 x 764 km, 98.3° (Epoch: 23 June)

Event Time Altitude Azimuth Distance (km) Brightness Sun altitude
Rises 01:33:40 0° 15° (NNE) 3,234 7.3 -16.2°
Reaches altitude 10° 01:36:00 10° 19° (NNE) 2,304 6.5 -15.9°
Maximum altitude 01:41:03 66° 101° (ESE) 830 3.3 -15.2°
Enters shadow 01:45:50 11° 184° (S) 2,199 5.0 -14.5°
